Weather History for KPHP - January, 2012

Change the Weather History Date:

Thursday, January 26, 2012

  Actual Average Record
Temperature  
Mean Temperature 39 °F 23 °F  
Max Temperature 49 °F 36 °F 64 °F (2002)
Min Temperature 29 °F 10 °F -27 °F (1950)
Degree Days  
Heating Degree Days 26 42  
Month to date heating degree days 983 1121  
Since 1 July heating degree days 3471 4056  
Cooling Degree Days 0 0  
Month to date cooling degree days 0 0  
Year to date cooling degree days 0 0  
Moisture  
Dew Point 22 °F    
Average Humidity 53    
Maximum Humidity 76    
Minimum Humidity 29    
Precipitation  
Precipitation T in 0.01 in 0.18 in (1988)
Month to date precipitation 0.21 0.26  
Year to date precipitation 0.21 0.26  
Sea Level Pressure  
Sea Level Pressure 29.90 in    
Wind  
Wind Speed 9 mph (SW)    
Max Wind Speed 20 mph    
Max Gust Speed 25 mph    
Visibility 10 miles    
Events      
T = Trace of Precipitation, MM = Missing Value Source: NWS Daily Summary

Daily Weather History Graph

Daily Weather History Graph

Search for Another Location

Airport or City:

Trip Planner

Search our weather history database for the weather conditions in past years. The results will help you decide how hot, cold, wet, or windy it might be!

Date:

Astronomy

Jan. 26, 2012 Rise Set
Actual Time 7:10 AM MST 4:47 PM MST
Civil Twilight 6:39 AM MST 5:19 PM MST
Nautical Twilight 6:04 AM MST 5:54 PM MST
Astronomical Twilight 5:30 AM MST 6:28 PM MST
Moon 8:29 AM MST (1/26) 8:53 PM MST (1/26)
Length of Visible Light 10h 39m
Length of Day
9h 37m
Waxing Crescent, 13% of the Moon is Illuminated
Jan 26
Waxing Crescent
Jan 30
First Quarter
Feb 7
Full
Feb 14
Last Quarter
Feb 21
New

Hourly Weather History & Observations

Time (MST) Temp. Windchill Dew Point Humidity Pressure Visibility Wind Dir Wind Speed Gust Speed Precip Events Conditions
12:55 AM 37.0 °F 30.4 °F 21.0 °F 52% 29.96 in 10.0 mi WSW 9.2 mph - N/A   Clear
1:55 AM 37.0 °F 28.5 °F 19.9 °F 50% 29.97 in 10.0 mi West 13.8 mph - N/A   Clear
2:55 AM 36.0 °F 26.3 °F 19.9 °F 52% 29.99 in 10.0 mi West 16.1 mph - N/A   Clear
3:55 AM 34.0 °F 24.6 °F 19.9 °F 56% 30.00 in 10.0 mi West 13.8 mph - N/A   Clear
4:55 AM 32.0 °F 23.0 °F 21.0 °F 64% 30.01 in 10.0 mi WNW 11.5 mph - N/A   Clear
5:55 AM 30.0 °F 20.5 °F 21.0 °F 69% 30.03 in 10.0 mi WNW 11.5 mph - N/A   Clear
6:55 AM 30.0 °F 20.0 °F 21.0 °F 69% 30.04 in 10.0 mi WNW 12.7 mph - N/A   Clear
7:55 AM 30.9 °F 22.2 °F 21.0 °F 67% 30.05 in 10.0 mi West 10.4 mph - N/A   Clear
8:55 AM 36.0 °F 29.6 °F 23.0 °F 59% 30.03 in 10.0 mi WNW 8.1 mph - N/A   Clear
9:55 AM 42.1 °F 38.4 °F 21.9 °F 45% 30.02 in 10.0 mi SW 5.8 mph - N/A   Clear
10:55 AM 45.0 °F 38.5 °F 21.0 °F 39% 30.01 in 10.0 mi West 13.8 mph - N/A   Clear
11:55 AM 46.0 °F 41.0 °F 18.0 °F 33% 29.97 in 10.0 mi West 10.4 mph - N/A   Clear
12:55 PM 46.9 °F - 19.0 °F 33% 29.91 in 10.0 mi WSW 4.6 mph - N/A   Clear
1:55 PM 48.9 °F - 18.0 °F 29% 29.89 in 10.0 mi West 8.1 mph - N/A   Clear
2:55 PM 48.0 °F - 17.1 °F 29% 29.86 in 10.0 mi SSW 3.5 mph - N/A   Clear
3:55 PM 43.0 °F 40.3 °F 17.1 °F 35% 29.84 in 10.0 mi SSW 4.6 mph - N/A   Clear
4:55 PM 37.9 °F 32.7 °F 18.0 °F 45% 29.83 in 10.0 mi South 6.9 mph - N/A   Clear
5:55 PM 37.0 °F 32.4 °F 19.0 °F 48% 29.81 in 10.0 mi SSE 5.8 mph - N/A   Mostly Cloudy
6:55 PM 37.9 °F 33.5 °F 21.0 °F 51% 29.80 in 10.0 mi South 5.8 mph - N/A   Overcast
7:55 PM 39.0 °F 32.3 °F 21.9 °F 50% 29.77 in 10.0 mi SSE 10.4 mph - N/A   Overcast
8:55 PM 39.9 °F 33.9 °F 32.0 °F 73% 29.72 in 10.0 mi SSE 9.2 mph - 0.00 in   Overcast
9:55 PM 39.0 °F 35.7 °F 28.9 °F 67% 29.70 in 10.0 mi East 4.6 mph - N/A   Overcast
10:55 PM 37.0 °F 34.5 °F 28.0 °F 70% 29.68 in 10.0 mi SE 3.5 mph - N/A   Partly Cloudy
11:55 PM 36.0 °F 32.1 °F 28.9 °F 76% 29.68 in 10.0 mi SW 4.6 mph - N/A   Clear